Date String (YYYY-MM-DD hh:mm:ss) UTC,Instrument flags,absolute air pressure of the measurement (hPa),sample flow rate (lpm),inlet stack bypass flow (lpm),air temperature of the measurement (°C),ambient temperature measured by the external sensor (°C),aerosol sample conditioner tube jacket temperature (°C),OPC LED temperature (°C),internal box temperature (°C),relative humidity of the measurement (%),span deviation,mass concentration of particles derived from Lorenz-Mie calculation of OPC scattering (μg/m³),mass concentration of particles derived from Lorenz-Mie calculation of OPC scattering (μg/m³),mass concentration of particles derived from Lorenz-Mie calculation of OPC scattering (μg/m³)
DateTimeUTC,F1_M11,P_M11,Q1_M11,Q2_M11,T1_M11,T2_M11,T3_M11,T4_M11,T5_M11,U1_M11,ZSPAN_M11,X0_M11,X2_M11,X1_M11
2024-04-03 21:00:00,SystemResetWarning,0828.6,5.00,000.00,025.5,024.3,000.0,034.1,027.2,010.6,0000.0,0006.90,0003.16,0002.04
2024-04-03 21:01:00,SystemResetWarning,0828.6,4.99,000.00,025.5,024.5,000.0,034.1,027.2,010.3,0000.0,0006.09,0003.17,0002.04
2024-04-03 21:02:00,SystemResetWarning,0828.6,4.99,000.00,025.5,024.6,000.0,034.1,027.3,009.9,0000.0,0006.54,0003.15,0002.04
2024-04-03 21:03:00,SystemResetWarning,0828.5,5.00,000.00,025.6,024.7,000.0,034.1,027.4,009.9,0000.0,0006.90,0003.12,0002.05
2024-04-03 21:04:00,SystemResetWarning,0828.6,5.00,000.00,025.6,024.8,000.0,034.1,027.4,009.8,0000.0,0006.69,0003.09,0002.04
2024-04-03 21:05:00,SystemResetWarning,0828.5,5.00,000.00,025.6,024.9,000.0,034.1,027.5,009.7,0000.0,0006.67,0003.09,0002.02
2024-04-03 21:06:00,SystemResetWarning,0828.5,5.00,000.00,025.7,025.0,000.0,034.1,027.5,009.7,0000.0,0006.45,0003.03,0002.00
2024-04-03 21:07:00,SystemResetWarning,0828.4,5.00,000.00,025.7,025.1,000.0,034.1,027.6,009.8,0000.0,0006.39,0003.01,0002.00
2024-04-03 21:08:00,SystemResetWarning,0828.4,5.01,000.00,025.7,025.2,000.0,034.1,027.6,010.3,0000.0,0006.29,0002.99,0001.99
2024-04-03 21:09:00,SystemResetWarning,0828.4,5.01,000.00,025.8,025.2,000.0,034.1,027.6,009.9,0000.0,0006.07,0002.93,0001.99
2024-04-03 21:10:00,SystemResetWarning,0828.4,4.99,000.00,025.8,025.3,000.0,034.1,027.7,009.8,0000.0,0006.28,0002.90,0001.99
2024-04-03 21:11:00,SystemResetWarning,0828.4,4.99,000.00,025.8,025.3,000.0,034.1,027.7,009.9,0000.0,0006.74,0002.93,0001.98
2024-04-03 21:12:00,SystemResetWarning,0828.4,4.99,000.00,025.9,025.4,000.0,034.2,027.7,010.0,0000.0,0007.56,0002.97,0001.97
2024-04-03 21:13:00,SystemResetWarning,0828.4,5.01,000.00,025.9,025.4,000.0,034.2,027.8,010.0,0000.0,0007.52,0002.96,0001.96
2024-04-03 21:14:00,SystemResetWarning,0828.4,5.01,000.00,025.9,025.4,000.0,034.2,027.8,009.8,0000.0,0007.53,0002.99,0001.95
2024-04-03 21:15:00,SystemResetWarning,0828.4,5.01,000.00,026.0,025.5,000.0,034.2,027.9,010.1,0000.0,0007.65,0003.03,0001.95
2024-04-03 21:16:00,SystemResetWarning,0828.4,5.00,000.00,026.0,025.5,000.0,034.3,027.9,010.1,0000.0,0007.70,0003.08,0001.95
2024-04-03 21:17:00,SystemResetWarning,0828.4,4.98,000.00,025.9,024.4,000.0,034.3,027.1,010.5,0000.0,0007.98,0003.09,0001.94
2024-04-03 21:18:00,SystemResetWarning,0828.3,5.01,000.00,025.4,022.2,000.0,034.3,025.9,010.3,0000.0,0008.07,0003.08,0001.95
2024-04-03 21:19:00,SystemResetWarning,0828.2,5.01,000.00,025.0,021.7,000.0,034.3,025.5,010.6,0000.0,0008.07,0003.09,0001.96
2024-04-03 21:20:00,SystemResetWarning,0828.3,5.01,000.00,024.9,022.1,000.0,034.1,025.7,010.5,0000.0,0008.14,0003.10,0001.97
2024-04-03 21:21:00,SystemResetWarning,0828.3,5.00,000.00,024.9,022.5,000.0,033.9,026.1,010.5,0000.0,0008.02,0003.09,0001.98
2024-04-03 21:22:00,SystemResetWarning,0828.3,5.00,000.00,024.9,022.9,000.0,033.8,026.3,010.5,0000.0,0007.94,0003.02,0001.98
2024-04-03 21:23:00,SystemResetWarning,0828.3,4.99,000.00,024.9,023.2,000.0,033.7,026.5,010.7,0000.0,0007.27,0002.95,0001.99
2024-04-03 21:24:00,SystemResetWarning,0828.2,5.01,000.00,024.9,023.5,000.0,033.7,026.6,011.0,0000.0,0007.36,0003.00,0002.00
2024-04-03 21:25:00,SystemResetWarning,0828.3,5.00,000.00,025.0,023.8,000.0,033.6,026.7,011.1,0000.0,0006.46,0003.02,0002.00
2024-04-03 21:26:00,SystemResetWarning,0828.2,4.99,000.00,025.0,024.1,000.0,033.6,026.8,011.0,0000.0,0006.34,0003.01,0002.00
2024-04-03 21:27:00,SystemResetWarning,0828.2,5.00,000.00,025.1,024.2,000.0,033.6,026.9,010.7,0000.0,0006.34,0002.99,0002.01
2024-04-03 21:28:00,SystemResetWarning,0828.2,5.00,000.00,025.1,024.4,000.0,033.6,027.0,010.9,0000.0,0006.01,0003.00,0002.03
2024-04-03 21:29:00,SystemResetWarning,0828.2,4.99,000.00,025.2,024.5,000.0,033.6,027.0,010.9,0000.0,0005.75,0003.00,0002.02
2024-04-03 21:30:00,SystemResetWarning,0828.2,5.00,000.00,025.2,024.6,000.0,033.6,027.1,010.3,0000.0,0005.68,0002.98,0002.01
2024-04-03 21:31:00,SystemResetWarning,0828.2,5.00,000.00,025.3,024.7,000.0,033.6,027.2,010.5,0000.0,0005.63,0003.00,0002.01
2024-04-03 21:32:00,SystemResetWarning,0828.2,5.00,000.00,025.3,024.8,000.0,033.6,027.2,010.3,0000.0,0005.50,0002.97,0002.00
2024-04-03 21:33:00,SystemResetWarning,0828.2,5.01,000.00,025.4,024.9,000.0,033.7,027.3,010.8,0000.0,0005.27,0003.00,0002.00
2024-04-03 21:34:00,SystemResetWarning,0828.2,5.00,000.00,025.4,024.9,000.0,033.7,027.3,010.2,0000.0,0005.01,0002.99,0001.99
2024-04-03 21:35:00,SystemResetWarning,0828.2,5.00,000.00,025.5,025.0,000.0,033.7,027.4,010.3,0000.0,0005.07,0003.03,0001.97
2024-04-03 21:36:00,SystemResetWarning,0828.2,5.00,000.00,025.5,025.1,000.0,033.7,027.4,010.3,0000.0,0005.06,0003.02,0001.98
2024-04-03 21:37:00,SystemResetWarning,0828.2,5.00,000.00,025.6,025.1,000.0,033.8,027.5,011.3,0000.0,0004.95,0002.98,0001.96
2024-04-03 21:38:00,SystemResetWarning,0828.2,4.99,000.00,025.6,025.2,000.0,033.8,027.5,011.0,0000.0,0004.97,0002.98,0001.96
2024-04-03 21:39:00,SystemResetWarning,0828.1,5.00,000.00,025.7,025.2,000.0,033.8,027.5,011.4,0000.0,0004.95,0002.95,0001.96
2024-04-03 21:40:00,SystemResetWarning,0828.2,5.00,000.00,025.7,025.2,000.0,033.9,027.6,010.6,0000.0,0004.91,0002.91,0001.96
2024-04-03 21:41:00,SystemResetWarning,0828.2,5.00,000.00,025.7,025.3,000.0,033.9,027.6,010.4,0000.0,0005.11,0002.95,0001.97
2024-04-03 21:42:00,SystemResetWarning,0828.2,5.00,000.00,025.8,025.3,000.0,033.9,027.6,010.4,0000.0,0005.87,0002.98,0001.97
2024-04-03 21:43:00,SystemResetWarning,0828.2,5.00,000.00,025.8,025.3,000.0,034.0,027.7,010.5,0000.0,0006.14,0002.98,0001.96
2024-04-03 21:44:00,SystemResetWarning,0828.1,5.00,000.00,025.8,025.3,000.0,034.0,027.6,010.5,0000.0,0006.14,0002.98,0001.96
2024-04-03 21:45:00,SystemResetWarning,0828.1,4.99,000.00,025.6,023.5,000.0,034.1,026.6,010.2,0000.0,0006.21,0003.01,0001.97
2024-04-03 21:46:00,SystemResetWarning,0828.0,5.02,000.00,025.3,022.4,000.0,034.1,026.1,010.5,0000.0,0006.03,0002.96,0001.97
2024-04-03 21:47:00,SystemResetWarning,0828.0,5.01,000.00,025.1,022.6,000.0,034.0,026.1,010.9,0000.0,0006.01,0002.95,0001.97
2024-04-03 21:48:00,SystemResetWarning,0828.0,4.99,000.00,025.1,023.0,000.0,033.9,026.4,011.0,0000.0,0006.02,0002.96,0001.98
2024-04-03 21:49:00,SystemResetWarning,0828.1,5.01,000.00,025.1,023.3,000.0,033.8,026.6,010.6,0000.0,0006.77,0002.95,0001.99
2024-04-03 21:50:00,SystemResetWarning,0828.0,5.00,000.00,025.1,023.6,000.0,033.7,026.7,010.5,0000.0,0006.73,0002.98,0002.00
2024-04-03 21:51:00,SystemResetWarning,0828.0,5.00,000.00,025.1,023.9,000.0,033.7,026.8,010.6,0000.0,0006.82,0003.04,0002.02
2024-04-03 21:52:00,SystemResetWarning,0828.1,5.00,000.00,025.1,024.1,000.0,033.7,026.9,010.8,0000.0,0006.67,0003.01,0002.01
2024-04-03 21:53:00,SystemResetWarning,0828.1,4.99,000.00,025.2,024.3,000.0,033.7,027.0,010.7,0000.0,0006.80,0003.00,0002.02
2024-04-03 21:54:00,SystemResetWarning,0828.1,4.99,000.00,025.2,024.5,000.0,033.7,027.1,010.5,0000.0,0006.85,0003.07,0002.03
2024-04-03 21:55:00,SystemResetWarning,0828.1,5.00,000.00,025.3,024.6,000.0,033.7,027.1,010.4,0000.0,0006.97,0003.10,0002.03
2024-04-03 21:56:00,SystemResetWarning,0828.0,5.00,000.00,025.3,024.7,000.0,033.7,027.2,010.4,0000.0,0006.88,0003.04,0002.02
2024-04-03 21:57:00,SystemResetWarning,0828.1,5.00,000.00,025.4,024.8,000.0,033.7,027.3,010.3,0000.0,0006.80,0003.00,0002.01
2024-04-03 21:58:00,SystemResetWarning,0828.1,5.00,000.00,025.4,024.9,000.0,033.7,027.3,010.9,0000.0,0007.03,0003.04,0002.01
2024-04-03 21:59:00,SystemResetWarning,0828.0,5.00,000.00,025.5,025.0,000.0,033.7,027.4,011.3,0000.0,0007.67,0003.08,0002.01
